sat.trackr.live / text

‹ back to catalog

STARLINK-32618

NORAD 62045 · 2024-216P

PAYLOAD ACTIVE UNKNOWN

§ Identity

Operator
Country
US
Launch date
2024-11-21
Launch site
AFETR
Launch vehicle
Mass (kg)
RCS (m²)

Purposes: comms

External: N2YO · Heavens-Above · Gunter

§ Orbital elements

Epoch: 2026-05-25T02:59:35.555712Z

Period
94.27 min
Inclination
42.9981°
Eccentricity
0.0001191
Mean motion
15.27591265 rev/d
Perigee alt
482.2 km
Apogee alt
483.8 km
Semi-major
6,861.2 km
B*
4.6752e-4
RAAN
184.8018°
Arg perigee
267.5415°
Mean anomaly
92.5300°
Rev number
8,556

§ Raw data

STARLINK-326181 62045U 24216P   26145.12471708  .00012630  00000+0  46752-3 0  99982 62045  42.9981 184.8018 0001191 267.5415  92.5300 15.27591265 85560

JSON: /api/v1/satellites/62045 · /tle

For live sub-satellite position, see the globe view (requires WebGL).

§ Visibility from observer

Set your observer location to see the next 7 days of passes ≥ 10°. The values pass through the URL so the page stays shareable.

No JS? Fill the form by hand. The geolocation button needs JavaScript.